This is the latest recevied weather packets stored in our database for station/object DM5AO-10. If no packets are shown the sender has not sent any weather packets the latest 10 day(s).
| Time | Temp. | Humidity | Pressure | Rain* | Wind** | Luminosity | Snow |
|---|---|---|---|---|---|---|---|
| 1787649896 | 23.89° C | 49% | 1019.7 hPa | - | - | - | - |
| 1787648995 | 23.33° C | 51% | 1019.8 hPa | - | - | - | - |
| 1787648094 | 22.78° C | 52% | 1019.9 hPa | - | - | - | - |
| 1787647193 | 22.78° C | 53% | 1019.8 hPa | - | - | - | - |
| 1787646293 | 22.22° C | 55% | 1020 hPa | - | - | - | - |
| 1787645391 | 22.22° C | 56% | 1020 hPa | - | - | - | - |
| 1787644491 | 21.67° C | 57% | 1019.9 hPa | - | - | - | - |
| 1787643590 | 21.67° C | 58% | 1019.9 hPa | - | - | - | - |
| 1787642689 | 21.11° C | 59% | 1019.8 hPa | - | - | - | - |
| 1787641788 | 21.11° C | 60% | 1019.8 hPa | - | - | - | - |
| 1787640887 | 21.11° C | 60% | 1019.7 hPa | - | - | - | - |
| 1787639986 | 20.56° C | 62% | 1019.5 hPa | - | - | - | - |
| 1787639085 | 20° C | 62% | 1019.6 hPa | - | - | - | - |
| 1787638185 | 20° C | 63% | 1019.9 hPa | - | - | - | - |
| 1787637284 | 20° C | 63% | 1019.9 hPa | - | - | - | - |
| 1787636384 | 19.44° C | 64% | 1019.7 hPa | - | - | - | - |
| 1787635482 | 19.44° C | 64% | 1019.8 hPa | - | - | - | - |
| 1787634581 | 19.44° C | 64% | 1019.6 hPa | - | - | - | - |
| 1787633680 | 19.44° C | 63% | 1019.6 hPa | - | - | - | - |
| 1787632779 | 18.89° C | 64% | 1019.7 hPa | - | - | - | - |
| 1787631878 | 18.89° C | 63% | 1019.7 hPa | - | - | - | - |
| 1787630977 | 18.89° C | 63% | 1019.7 hPa | - | - | - | - |
| 1787630076 | 19.44° C | 62% | 1019.8 hPa | - | - | - | - |
| 1787629176 | 18.89° C | 62% | 1019.8 hPa | - | - | - | - |
| 1787628275 | 19.44° C | 60% | 1019.8 hPa | - | - | - | - |
* Rain since midnight (hover to see other rain measurements)
** Current wind speed in m/s (hover to see current wind gust speed)